SCP
-0 -0 -0 -0 -0 -0 0 -0 -0 -0 0 -0 0 -0 0 0 0 0 0 0 0 0 0 0 0 0 0 0 0 0 0 0 0 0 0 0 0 0 0 0 -0 -0 -0 0
-0 -0 -0 -0 -0 -0 0 0 0 0 -0 0 0 0 0 0 -0 0 0 0 0 0 0 0 0 0 0 0 0 0 0 0 0 0 0 0 0 0 -0 -0 0 0 0 0
-0 -0 -0 -0 -0 -0 0 0 -0 0 0 0 -0 0 0 0 0 0 0 0 -0 0 0 0 0 0 0 0 0 0 0 0 0 0 0 0 0 0 -0 0 0 0 0 0
-0 -0 -0 -0 -0 -0 0 0 0 0 0 0 0 0 0 0 0 0 0 0 0 0 0 0 0 0 0 0 0 0 0 0 -0 0 0 0 0 -0 0 0 0 0 0 0
-0 -0 -0 -0 -0 -0 0 0 0 0 0 0 0 0 0 0 0 0 0 0 0 0 0 0 0 0 0 0 0 0 0 0 -0 0 0 -0 0 0 -0 0 0 0 0 0
-0 -0 -0 -0 -0 -0 0 0 0 0 0 -0 -0 0 0 0 0 0 0 0 -0 0 0 0 0 0 0 0 0 0 0 0 0 0 0 0 -0 -0 0 0 0 0 0 0
-0 -0 -0 -0 -0 -0 0 0 0 0 0 0 0 0 0 0 0 0 0 0 0 0 0 0 -0 -0 0 0 0 0 0 -0 -0 0 0 0 0 -0 0 0 0 0 0 0
-0 -0 -0 -0 -0 -0 0 0 0 0 0 0 0 0 0 0 0 0 0 0 0 0 0 -0 0 0 0 0 0 0 0 0 -0 -0 0 -0 -0 -0 0 0 0 0 0 0
-0 -0 -0 -0 -0 -0 -0 0 0 0 0 0 0 0 0 0 0 0 0 0 0 0 -0 -0 0 -0 -0 0 0 0 -0 -0 -0 0 -0 0 0 0 0 0 0 0 0 0
-0 -0 -0 -0 -0 -0 0 0 0 0 0 0 0 0 0 0 0 0 0 0 0 -0 -0 -0 -0 0 0 0 0 0 0 0 0 0 0 -0 -0 -0 0 0 0 0 0 0
-0 -0 -0 -0 -0 -0 0 0 0 0 0 0 0 -0 -0 0 0 0 0 0 0 0 -0 -0 0 0 0 0 -0 0 0 0 0 0 0 0 -0 0 0 0 0 0 0 0
-0 -0 -0 -0 -0 -0 -0 0 0 0 0 0 -0 -0 -0 0 0 0 0 0 0 0 0 0 0 0 0 0 0 0 0 0 0 0 0 0 0 0 0 0 0 0 0 0
-0 -0 -0 -0 -0 -0 -0 0 -0 0 -0 -0 0 0 0 0 0 0 0 0 0 0 -0 0 0 -0 0 -0 -0 -0 -0 -0 -0 0 0 0 0 0 0 0 0 0 0 0
-0 -0 -0 -0 -0 -0 -0 0 -0 0 0 0 0 0 0 0 0 0 0 0 0 -0 0 -0 0 0 -0 0 0 -0 -0 -0 -0 0 0 0 0 0 0 0 0 0 0 0
-0 -0 -0 -0 -0 -0 -0 0 -0 -0 0 0 0 0 -0 0 0 0 0 -0 -0 -0 -0 0 -0 -0 -0 0 -0 -0 -0 -0 0 0 0 0 0 0 0 0 0 0 0 0
-0 -0 -0 -0 -0 -0 0 0 0 -0 -0 0 -0 -0 0 -0 -0 -0 -0 -0 -0 -0 -0 0 0 0 0 0 -0 -0 -0 0 0 0 0 0 0 0 0 0 0 0 0 0
-0 0 -0 -0 -0 -0 0 -0 -0 -0 -0 -0 -0 -0 0 -0 0 -0 -0 0 0 0 -0 -0 -0 -0 -0 -0 -0 0 0 0 0 0 0 0 0 0 0 0 0 0 0 0
0 0 -0 -0 -0 0 0 0 -0 -0 -0 -0 -0 -0 -0 0 0 -0 0 -0 0 0 -0 -0 0 -0 0 0 0 0 0 0 0 0 0 0 0 0 0 0 0 0 0 0
0 0 -0 0 0 0 0 -0 -0 -0 -0 -0 0 -0 0 -0 0 -0 0 -0 0 -0 0 0 0 0 0 0 0 0 0 0 0 0 0 0 0 0 0 0 0 0 0 0
0 0 0 0 0 0 -0 0 0 -0 0 0 -0 0 0 -0 0 0 0 -0 0 0 0 0 0 0 0 0 0 0 0 0 0 0 0 0 0 0 0 0 0 0 0 0
0 0 0 0 0 0 0 0 -0 -0 -0 -0 -0 -0 -0 -0 -0 0 -0 0 0 0 0 0 0 0 0 0 0 0 0 0 0 0 0 0 0 0 0 0 0 0 0 0
0 0 0 0 0 0 0 -0 -0 0 -0 -0 -0 -0 0 0 0 0 0 0 0 0 0 0 0 0 0 0 0 0 0 0 0 0 0 0 0 0 0 0 0 0 0 0
0 0 0 0 0 0 0 0 0 0 0 0 0 0 0 0 0 0 0 0 0 0 0 0 0 0 0 0 0 0 0 0 0 0 0 0 0 0 0 0 0 0 0 0
0 0 0 0 0 0 0 0 0 0 0 0 0 0 0 0 0 0 0 0 0 0 0 0 0 0 0 0 0 0 0 0 0 0 0 0 0 0 0 0 0 0 0 0
0 0 0 0 0 0 0 0 0 0 0 0 0 0 0 0 0 0 0 0 0 0 0 0 0 0 0 0 0 0 0 0 0 0 0 0 0 0 0 0 0 0 0 0
0 0 0 0 0 0 0 0 0 0 0 0 0 0 0 0 0 0 0 0 0 0 0 0 0 0 0 0 0 0 0 0 0 0 0 0 0 0 0 0 0 0 0 0
0 0 0 0 0 0 0 0 0 0 0 0 0 0 0 0 0 0 0 0 0 0 0 0 0 0 0 0 0 0 0 0 0 0 0 0 0 0 0 0 0 0 0 0
Wind_Speed_500mb
48 43 40 29 7 4 8 25 19 5 8 17 27 13 12 9 6 6 7 17 22 20 18 18 22 23 22 22 25 22 18 8 15 20 20 10 23 15 19 12 20 18 29 10
47 42 36 31 13 10 15 16 3 4 12 10 14 8 11 2 5 15 9 8 9 10 10 8 2 17 25 34 24 14 20 12 12 2 17 18 10 19 19 18 16 2 8 8
47 42 34 28 14 2 11 16 4 9 13 20 20 12 8 6 10 7 10 7 12 9 5 6 9 17 14 16 17 16 12 7 9 13 16 8 10 18 20 21 16 18 23 25
48 43 35 27 13 4 4 8 8 10 12 4 17 5 12 16 8 3 12 1 10 12 8 7 6 18 21 18 7 12 6 10 9 13 11 11 8 18 12 17 16 14 27 28
49 45 40 29 16 8 9 14 13 9 6 7 9 7 3 9 15 15 10 6 12 18 22 24 22 28 21 3 10 20 8 8 18 20 5 5 4 15 28 26 24 23 19 18
47 44 40 33 22 14 10 12 8 11 5 8 12 8 5 10 18 12 20 16 12 21 15 21 18 13 12 11 11 7 6 2 9 3 30 14 16 25 21 20 23 23 19 22
44 42 38 33 28 25 26 12 12 17 6 12 17 10 1 19 32 18 21 28 25 12 9 17 19 14 9 14 9 3 6 11 14 9 21 5 9 21 23 22 21 22 22 24
42 39 35 30 24 22 18 17 8 14 10 17 10 2 3 8 4 20 22 16 12 14 16 15 10 12 12 7 19 17 5 9 3 7 6 27 21 24 19 16 27 33 25 29
38 36 33 29 23 17 23 20 7 10 15 17 20 26 4 5 12 13 10 8 10 13 18 16 8 7 19 4 5 11 5 12 13 6 7 7 15 23 21 21 10 33 29 29
35 32 30 27 22 24 23 22 17 14 33 32 26 20 19 20 24 12 5 10 10 11 13 17 16 6 15 10 8 9 13 9 5 6 3 13 27 34 25 11 11 25 23 27
32 29 26 24 21 24 28 23 26 29 35 30 33 36 43 36 36 17 11 8 9 17 15 11 10 9 1 4 14 13 12 10 7 14 13 9 38 20 14 15 18 20 22 21
30 27 23 21 17 25 27 16 30 28 19 29 31 36 32 29 24 16 12 8 16 19 12 10 9 11 18 11 5 19 10 15 10 13 11 20 23 22 16 17 17 19 18 14
28 24 20 17 16 19 20 20 17 16 27 24 24 27 26 23 23 19 11 16 13 7 9 17 6 17 8 9 11 11 25 53 17 14 23 20 17 14 16 17 16 15 15 12
25 21 17 13 13 15 24 19 15 7 8 10 17 12 22 19 16 14 12 8 6 9 12 19 10 11 11 12 16 23 21 21 15 15 24 17 22 18 13 11 11 12 12 11
21 18 15 12 12 16 22 17 20 22 11 15 18 10 21 16 15 13 9 6 7 19 11 11 7 5 14 32 27 23 32 20 11 8 21 20 17 11 8 8 10 9 6 6
16 14 17 13 14 19 22 7 13 10 18 7 8 13 16 17 16 14 14 5 13 15 18 12 9 7 12 9 17 32 28 21 15 16 13 14 9 5 5 5 4 4 4 3
11 12 19 22 14 7 8 5 6 4 11 9 15 15 12 8 10 12 14 8 8 15 10 4 19 13 15 17 19 27 27 18 10 6 15 10 16 8 4 2 3 5 3 3
10 13 20 26 29 24 18 15 10 4 7 9 2 8 6 9 9 13 1 8 10 9 8 3 11 20 18 10 23 22 27 25 35 27 16 7 8 10 5 2 2 4 4 3
17 20 20 17 16 9 9 24 15 7 9 18 13 6 9 5 9 8 7 4 6 4 8 6 9 8 10 13 14 20 24 29 31 33 34 24 16 23 12 10 12 13 12 7
17 14 3 7 6 19 13 8 2 2 4 7 7 15 11 15 5 6 5 4 5 9 7 7 11 11 15 12 13 16 22 25 29 32 34 34 30 27 26 21 24 20 15 10
14 9 10 8 14 7 5 3 2 2 6 9 7 14 14 11 16 8 7 9 4 5 8 3 7 5 10 9 12 17 22 25 28 28 29 30 33 34 34 32 28 25 20 17
10 11 10 5 3 6 3 2 5 8 7 6 21 13 10 10 7 10 7 7 2 6 4 5 7 7 10 11 15 20 26 29 31 32 33 36 38 37 37 39 26 25 26 23
15 9 4 5 2 4 4 6 6 7 6 8 10 7 8 4 3 7 5 4 2 5 5 7 6 8 9 12 18 25 27 30 31 33 34 37 36 35 35 37 33 24 30 29
5 3 8 6 6 6 12 19 20 9 8 9 12 7 12 5 6 7 7 7 7 7 7 7 12 17 18 19 24 26 29 33 35 37 38 37 36 38 38 34 18 15 22 30
7 4 2 7 15 17 17 19 16 10 12 13 13 4 8 11 5 4 7 5 6 13 8 9 14 13 21 24 27 31 34 34 38 42 43 44 40 36 37 33 23 21 20 36
4 3 11 15 16 16 18 18 17 14 14 10 5 5 5 4 7 5 1 12 13 5 5 8 10 19 22 21 27 29 35 32 32 39 46 43 39 34 35 34 32 21 27 34
0 2 10 21 23 19 14 13 16 16 15 12 5 6 11 10 7 5 9 10 13 13 17 19 19 20 20 24 28 31 31 29 39 35 45 45 45 39 38 33 36 33 35 36
Wind_Direction_500mb
5 3 3 5 2 192 245 284 264 99 170 220 233 292 99 346 129 66 20 24 15 10 16 344 350 71 39 8 357 349 55 315 307 334 69 29 59 20 10 349 343 39 328 65
5 3 4 6 17 219 282 274 30 131 184 253 228 113 114 191 278 32 26 59 15 13 6 331 1 81 46 33 31 20 355 32 318 78 80 15 51 19 13 347 296 99 333 96
5 4 5 8 11 325 294 292 213 139 226 280 306 135 163 119 40 50 5 8 288 289 317 102 316 130 81 76 60 40 335 283 281 329 29 303 58 51 11 44 22 350 37 96
6 7 8 10 20 117 297 295 56 4 17 72 345 51 157 148 166 302 1 13 353 19 316 275 340 132 147 158 139 89 14 301 306 67 360 22 45 45 46 26 44 356 23 48
7 9 11 16 41 86 42 349 352 343 33 14 296 24 311 82 80 353 98 317 37 40 36 12 6 352 29 172 94 35 65 336 298 22 66 17 64 65 24 23 6 22 37 57
9 11 16 20 33 75 48 343 326 285 152 209 238 119 123 89 75 360 29 16 338 80 33 346 347 335 336 345 343 55 332 299 274 42 265 253 48 30 27 8 48 43 21 16
11 13 17 23 34 61 54 1 330 289 173 46 50 67 59 63 21 83 45 11 33 41 344 311 286 299 250 230 120 140 285 320 345 202 224 97 97 49 21 1 51 49 26 1
10 13 17 22 30 43 60 14 33 336 30 48 108 204 62 90 125 72 68 56 41 358 311 287 227 219 247 125 55 7 14 94 340 285 189 116 26 33 12 359 53 27 6 355
9 12 17 20 28 55 72 3 38 337 330 37 349 322 117 179 147 162 139 92 352 331 288 248 259 284 215 147 290 206 224 241 268 13 316 113 42 4 1 320 54 3 7 4
8 10 16 24 35 55 63 29 43 51 86 38 29 23 356 16 4 136 141 71 343 301 273 281 270 29 339 128 112 313 290 253 165 146 63 84 7 16 331 37 7 1 11 10
7 10 16 29 54 72 77 31 71 73 91 62 56 50 42 31 25 18 19 270 12 312 310 342 15 14 252 107 108 82 270 71 317 22 25 48 13 28 45 4 5 23 13 20
5 10 19 33 71 85 77 57 81 64 87 101 71 59 50 45 31 4 340 54 51 11 328 4 338 3 27 314 36 342 50 55 63 41 91 77 56 47 42 23 31 18 23 22
4 12 23 41 65 76 89 57 79 104 117 127 49 38 32 32 26 19 354 39 12 31 326 297 63 57 43 49 329 323 66 55 80 71 360 71 49 75 60 37 34 28 27 26
4 14 26 48 80 87 85 35 36 41 300 120 77 54 28 17 33 33 51 65 9 322 275 288 47 78 137 159 94 50 45 39 72 62 12 93 57 48 43 48 31 28 34 44
7 20 33 55 89 91 97 42 42 34 41 55 103 105 26 31 43 56 70 78 313 286 14 13 2 76 7 88 64 43 32 24 56 60 44 33 46 47 41 33 27 22 42 64
13 37 46 62 98 102 87 102 10 18 29 324 106 66 40 52 64 80 84 69 352 357 51 132 92 36 354 59 76 27 31 35 19 53 41 52 39 44 29 33 39 49 58 86
28 63 66 68 75 96 69 56 131 96 27 316 145 122 47 65 73 93 95 65 19 15 92 125 66 48 84 64 56 14 13 8 23 22 3 345 337 38 5 48 64 98 71 123
58 83 83 84 72 63 54 95 111 105 356 300 41 109 111 340 141 97 29 111 106 13 89 20 73 66 71 57 22 22 16 9 15 0 328 302 329 325 247 225 258 264 263 219
90 90 80 57 30 99 82 86 77 29 27 328 352 65 86 234 93 137 115 274 95 266 95 100 47 61 55 58 29 26 19 17 6 1 12 13 349 318 270 253 238 261 268 237
80 43 297 68 62 101 87 35 90 123 49 321 39 340 81 317 328 121 193 286 125 182 77 178 89 86 107 74 48 21 9 4 0 359 355 351 338 321 309 287 273 263 260 220
15 12 67 91 75 31 5 49 338 153 121 13 38 25 1 17 351 9 3 341 9 234 125 202 103 93 82 57 31 10 358 353 348 343 335 330 323 318 313 293 276 263 249 216
99 92 81 34 328 17 305 80 169 9 54 31 17 27 2 22 337 292 26 304 240 58 126 117 88 109 55 20 5 1 352 348 343 338 338 331 324 319 311 305 289 242 236 220
47 21 31 22 126 30 253 148 153 111 64 15 335 82 339 209 14 292 309 289 321 21 230 71 94 97 55 14 1 353 352 350 343 341 340 338 334 323 322 315 310 253 228 221
18 56 356 257 124 48 37 42 64 65 34 11 337 41 5 14 352 328 290 25 309 278 77 72 67 37 9 5 2 350 351 351 349 347 336 333 334 335 336 324 321 267 231 220
30 323 295 65 78 92 80 83 83 39 10 1 337 227 326 49 292 2 19 271 263 47 64 99 66 34 3 0 350 347 345 347 346 345 340 330 329 329 328 326 315 290 264 237
355 211 123 116 114 104 70 57 43 11 354 314 322 346 27 340 330 276 358 321 45 52 50 81 76 34 13 353 352 339 339 346 350 349 344 338 332 332 324 320 313 286 267 234
246 87 42 68 73 68 56 34 12 352 337 37 354 337 29 303 308 317 18 64 60 33 45 48 49 32 4 356 349 339 337 338 342 341 343 347 334 324 326 319 326 304 283 254
Wind_Speed_850mb
48 43 40 29 7 4 8 25 19 5 8 17 27 13 12 9 6 6 7 17 22 20 18 18 22 23 22 22 25 22 18 8 15 20 20 10 23 15 19 12 20 18 29 10
47 42 36 31 13 10 15 16 3 4 12 10 14 8 11 2 5 15 9 8 9 10 10 8 2 17 25 34 24 14 20 12 12 2 17 18 10 19 19 18 16 2 8 8
47 42 34 28 14 2 11 16 4 9 13 20 20 12 8 6 10 7 10 7 12 9 5 6 9 17 14 16 17 16 12 7 9 13 16 8 10 18 20 21 16 18 23 25
48 43 35 27 13 4 4 8 8 10 12 4 17 5 12 16 8 3 12 1 10 12 8 7 6 18 21 18 7 12 6 10 9 13 11 11 8 18 12 17 16 14 27 28
49 45 40 29 16 8 9 14 13 9 6 7 9 7 3 9 15 15 10 6 12 18 22 24 22 28 21 3 10 20 8 8 18 20 5 5 4 15 28 26 24 23 19 18
47 44 40 33 22 14 10 12 8 11 5 8 12 8 5 10 18 12 20 16 12 21 15 21 18 13 12 11 11 7 6 2 9 3 30 14 16 25 21 20 23 23 19 22
44 42 38 33 28 25 26 12 12 17 6 12 17 10 1 19 32 18 21 28 25 12 9 17 19 14 9 14 9 3 6 11 14 9 21 5 9 21 23 22 21 22 22 24
42 39 35 30 24 22 18 17 8 14 10 17 10 2 3 8 4 20 22 16 12 14 16 15 10 12 12 7 19 17 5 9 3 7 6 27 21 24 19 16 27 33 25 29
38 36 33 29 23 17 23 20 7 10 15 17 20 26 4 5 12 13 10 8 10 13 18 16 8 7 19 4 5 11 5 12 13 6 7 7 15 23 21 21 10 33 29 29
35 32 30 27 22 24 23 22 17 14 33 32 26 20 19 20 24 12 5 10 10 11 13 17 16 6 15 10 8 9 13 9 5 6 3 13 27 34 25 11 11 25 23 27
32 29 26 24 21 24 28 23 26 29 35 30 33 36 43 36 36 17 11 8 9 17 15 11 10 9 1 4 14 13 12 10 7 14 13 9 38 20 14 15 18 20 22 21
30 27 23 21 17 25 27 16 30 28 19 29 31 36 32 29 24 16 12 8 16 19 12 10 9 11 18 11 5 19 10 15 10 13 11 20 23 22 16 17 17 19 18 14
28 24 20 17 16 19 20 20 17 16 27 24 24 27 26 23 23 19 11 16 13 7 9 17 6 17 8 9 11 11 25 53 17 14 23 20 17 14 16 17 16 15 15 12
25 21 17 13 13 15 24 19 15 7 8 10 17 12 22 19 16 14 12 8 6 9 12 19 10 11 11 12 16 23 21 21 15 15 24 17 22 18 13 11 11 12 12 11
21 18 15 12 12 16 22 17 20 22 11 15 18 10 21 16 15 13 9 6 7 19 11 11 7 5 14 32 27 23 32 20 11 8 21 20 17 11 8 8 10 9 6 6
16 14 17 13 14 19 22 7 13 10 18 7 8 13 16 17 16 14 14 5 13 15 18 12 9 7 12 9 17 32 28 21 15 16 13 14 9 5 5 5 4 4 4 3
11 12 19 22 14 7 8 5 6 4 11 9 15 15 12 8 10 12 14 8 8 15 10 4 19 13 15 17 19 27 27 18 10 6 15 10 16 8 4 2 3 5 3 3
10 13 20 26 29 24 18 15 10 4 7 9 2 8 6 9 9 13 1 8 10 9 8 3 11 20 18 10 23 22 27 25 35 27 16 7 8 10 5 2 2 4 4 3
17 20 20 17 16 9 9 24 15 7 9 18 13 6 9 5 9 8 7 4 6 4 8 6 9 8 10 13 14 20 24 29 31 33 34 24 16 23 12 10 12 13 12 7
17 14 3 7 6 19 13 8 2 2 4 7 7 15 11 15 5 6 5 4 5 9 7 7 11 11 15 12 13 16 22 25 29 32 34 34 30 27 26 21 24 20 15 10
14 9 10 8 14 7 5 3 2 2 6 9 7 14 14 11 16 8 7 9 4 5 8 3 7 5 10 9 12 17 22 25 28 28 29 30 33 34 34 32 28 25 20 17
10 11 10 5 3 6 3 2 5 8 7 6 21 13 10 10 7 10 7 7 2 6 4 5 7 7 10 11 15 20 26 29 31 32 33 36 38 37 37 39 26 25 26 23
15 9 4 5 2 4 4 6 6 7 6 8 10 7 8 4 3 7 5 4 2 5 5 7 6 8 9 12 18 25 27 30 31 33 34 37 36 35 35 37 33 24 30 29
5 3 8 6 6 6 12 19 20 9 8 9 12 7 12 5 6 7 7 7 7 7 7 7 12 17 18 19 24 26 29 33 35 37 38 37 36 38 38 34 18 15 22 30
7 4 2 7 15 17 17 19 16 10 12 13 13 4 8 11 5 4 7 5 6 13 8 9 14 13 21 24 27 31 34 34 38 42 43 44 40 36 37 33 23 21 20 36
4 3 11 15 16 16 18 18 17 14 14 10 5 5 5 4 7 5 1 12 13 5 5 8 10 19 22 21 27 29 35 32 32 39 46 43 39 34 35 34 32 21 27 34
0 2 10 21 23 19 14 13 16 16 15 12 5 6 11 10 7 5 9 10 13 13 17 19 19 20 20 24 28 31 31 29 39 35 45 45 45 39 38 33 36 33 35 36
Wind_Direction_850mb
5 3 3 5 2 192 245 284 264 99 170 220 233 292 99 346 129 66 20 24 15 10 16 344 350 71 39 8 357 349 55 315 307 334 69 29 59 20 10 349 343 39 328 65
5 3 4 6 17 219 282 274 30 131 184 253 228 113 114 191 278 32 26 59 15 13 6 331 1 81 46 33 31 20 355 32 318 78 80 15 51 19 13 347 296 99 333 96
5 4 5 8 11 325 294 292 213 139 226 280 306 135 163 119 40 50 5 8 288 289 317 102 316 130 81 76 60 40 335 283 281 329 29 303 58 51 11 44 22 350 37 96
6 7 8 10 20 117 297 295 56 4 17 72 345 51 157 148 166 302 1 13 353 19 316 275 340 132 147 158 139 89 14 301 306 67 360 22 45 45 46 26 44 356 23 48
7 9 11 16 41 86 42 349 352 343 33 14 296 24 311 82 80 353 98 317 37 40 36 12 6 352 29 172 94 35 65 336 298 22 66 17 64 65 24 23 6 22 37 57
9 11 16 20 33 75 48 343 326 285 152 209 238 119 123 89 75 360 29 16 338 80 33 346 347 335 336 345 343 55 332 299 274 42 265 253 48 30 27 8 48 43 21 16
11 13 17 23 34 61 54 1 330 289 173 46 50 67 59 63 21 83 45 11 33 41 344 311 286 299 250 230 120 140 285 320 345 202 224 97 97 49 21 1 51 49 26 1
10 13 17 22 30 43 60 14 33 336 30 48 108 204 62 90 125 72 68 56 41 358 311 287 227 219 247 125 55 7 14 94 340 285 189 116 26 33 12 359 53 27 6 355
9 12 17 20 28 55 72 3 38 337 330 37 349 322 117 179 147 162 139 92 352 331 288 248 259 284 215 147 290 206 224 241 268 13 316 113 42 4 1 320 54 3 7 4
8 10 16 24 35 55 63 29 43 51 86 38 29 23 356 16 4 136 141 71 343 301 273 281 270 29 339 128 112 313 290 253 165 146 63 84 7 16 331 37 7 1 11 10
7 10 16 29 54 72 77 31 71 73 91 62 56 50 42 31 25 18 19 270 12 312 310 342 15 14 252 107 108 82 270 71 317 22 25 48 13 28 45 4 5 23 13 20
5 10 19 33 71 85 77 57 81 64 87 101 71 59 50 45 31 4 340 54 51 11 328 4 338 3 27 314 36 342 50 55 63 41 91 77 56 47 42 23 31 18 23 22
4 12 23 41 65 76 89 57 79 104 117 127 49 38 32 32 26 19 354 39 12 31 326 297 63 57 43 49 329 323 66 55 80 71 360 71 49 75 60 37 34 28 27 26
4 14 26 48 80 87 85 35 36 41 300 120 77 54 28 17 33 33 51 65 9 322 275 288 47 78 137 159 94 50 45 39 72 62 12 93 57 48 43 48 31 28 34 44
7 20 33 55 89 91 97 42 42 34 41 55 103 105 26 31 43 56 70 78 313 286 14 13 2 76 7 88 64 43 32 24 56 60 44 33 46 47 41 33 27 22 42 64
13 37 46 62 98 102 87 102 10 18 29 324 106 66 40 52 64 80 84 69 352 357 51 132 92 36 354 59 76 27 31 35 19 53 41 52 39 44 29 33 39 49 58 86
28 63 66 68 75 96 69 56 131 96 27 316 145 122 47 65 73 93 95 65 19 15 92 125 66 48 84 64 56 14 13 8 23 22 3 345 337 38 5 48 64 98 71 123
58 83 83 84 72 63 54 95 111 105 356 300 41 109 111 340 141 97 29 111 106 13 89 20 73 66 71 57 22 22 16 9 15 0 328 302 329 325 247 225 258 264 263 219
90 90 80 57 30 99 82 86 77 29 27 328 352 65 86 234 93 137 115 274 95 266 95 100 47 61 55 58 29 26 19 17 6 1 12 13 349 318 270 253 238 261 268 237
80 43 297 68 62 101 87 35 90 123 49 321 39 340 81 317 328 121 193 286 125 182 77 178 89 86 107 74 48 21 9 4 0 359 355 351 338 321 309 287 273 263 260 220
15 12 67 91 75 31 5 49 338 153 121 13 38 25 1 17 351 9 3 341 9 234 125 202 103 93 82 57 31 10 358 353 348 343 335 330 323 318 313 293 276 263 249 216
99 92 81 34 328 17 305 80 169 9 54 31 17 27 2 22 337 292 26 304 240 58 126 117 88 109 55 20 5 1 352 348 343 338 338 331 324 319 311 305 289 242 236 220
47 21 31 22 126 30 253 148 153 111 64 15 335 82 339 209 14 292 309 289 321 21 230 71 94 97 55 14 1 353 352 350 343 341 340 338 334 323 322 315 310 253 228 221
18 56 356 257 124 48 37 42 64 65 34 11 337 41 5 14 352 328 290 25 309 278 77 72 67 37 9 5 2 350 351 351 349 347 336 333 334 335 336 324 321 267 231 220
30 323 295 65 78 92 80 83 83 39 10 1 337 227 326 49 292 2 19 271 263 47 64 99 66 34 3 0 350 347 345 347 346 345 340 330 329 329 328 326 315 290 264 237
355 211 123 116 114 104 70 57 43 11 354 314 322 346 27 340 330 276 358 321 45 52 50 81 76 34 13 353 352 339 339 346 350 349 344 338 332 332 324 320 313 286 267 234
246 87 42 68 73 68 56 34 12 352 337 37 354 337 29 303 308 317 18 64 60 33 45 48 49 32 4 356 349 339 337 338 342 341 343 347 334 324 326 319 326 304 283 254